ROMMA est une association bénévole à but non lucratif. Votre soutien est indispensable : ADHERER à ROMMA ou FAIRE un DON

Die - (26, Drôme)

Diois (400 m)   Longitude: 5° 21' 55"E   Latitude: 44° 45' 16"N Station partenaire n°159
 

Détail journalier du     <<     >>

Température Precipitation Humidité Pression Vent Dir Rafale Dir. rafale Ensol.
Heure (°C) (mm) (%) (hPa) (km/h) (km/h) (min)
01:00 13.007510166NO26O0
02:00 12.10.67110166NO26ONO0
03:00 12.00.27210158ONO27ONO0
04:00 12.406710146NO23NE0
05:00 12.606310149NO27ONO0
06:00 12.40.26210148NO31N0
07:00 12.406110149NO35ONO0
08:00 12.5061101510NO53ESE0
09:00 13.105910168ONO40ESE0
10:00 13.905710159NO27O0
11:00 15.405510169ONO27E60
12:00 16.4051101610ONO27ONO60
13:00 17.4049101610NO32O60
14:00 17.7050101611NO29ONO60
15:00 18.1050101510NO29NO60
16:00 18.205110169NO23NNO60
17:00 17.905210168NO24O60
18:00 16.805410177NO31NNO60
19:00 15.106010178NO24NO0
20:00 14.606110188NO27ONO0
21:00 13.106610195NO16N0
22:00 12.107010192ONO10O0
23:00 10.207710192SO6SSE0
minuit 8.308410201S8SSE0

Graphique du 07-10-2019

 

Serveur OMMA